User: anonymous   Login
Location: �terpigny
(49.8910°N, 2.9249°E)
Time: 13:51:30
(UTC+00:00)
Language:

YAOGAN-30 N - Orbit

View from above orbital plane
View from above orbital plane
View from above satellite
View from above satellite

Ground track
Ground track

The orbit data is extracted from the following two-line orbital elements,

1 44449U 19045A   22341.99716837  .00001337  00000-0  13526-3 0  9990
2 44449  34.9948 183.5781 0005322 287.5863  72.4263 14.91033763183696
Epoch (UTC): 07 December 2022 23:55:55
Eccentricity: 0.0005322
inclination: 34.9948°
perigee height: 591 km
apogee height: 598 km
right ascension of ascending node: 183.5781°
argument of perigee: 287.5863°
revolutions per day: 14.91033763
mean anomaly at epoch: 72.4263°
orbit number at epoch: 18369

The dashed part of the orbit path shows where the satellite is in the earth's shadow,  

DLR